| time (UTC) | temp C | wind direction | speed KPH | gust KPH | rain 1hr cm | rain 24hr cm | rain mn cm | humidity % | barometer mb |
| 20260507213109 | 24 | 229 | 6.4 | 14.5 | 0.00 | 0.00 | 0.00 | 35 | 1012.8 |
| 20260507211504 | 24 | 249 | 4.8 | 14.5 | 0.00 | 0.00 | 0.00 | 36 | 1013.0 |
| 20260507210104 | 23 | 219 | 8.0 | 17.7 | 0.00 | 0.00 | 0.00 | 32 | 1013.1 |
| 20260507204502 | 23 | 248 | 8.0 | 17.7 | 0.00 | 0.00 | 0.00 | 36 | 1013.3 |
| 20260507203009 | 23 | 211 | 8.0 | 16.1 | 0.00 | 0.00 | 0.00 | 37 | 1013.4 |
| 20260507201510 | 22 | 230 | 6.4 | 16.1 | 0.00 | 0.00 | 0.00 | 42 | 1013.5 |
| 20260507194636 | 22 | 238 | 8.0 | 14.5 | 0.00 | 0.00 | 0.00 | 45 | 1013.9 |
| 20260507193006 | 22 | 232 | 4.8 | 12.9 | 0.00 | 0.00 | 0.00 | 40 | 1013.9 |
| 20260507191508 | 21 | 245 | 9.7 | 16.1 | 0.00 | 0.00 | 0.00 | 44 | 1013.9 |
| 20260507190058 | 21 | 243 | 8.0 | 17.7 | 0.00 | 0.00 | 0.00 | 44 | 1014.1 |
| 20260507184518 | 21 | 263 | 6.4 | 17.7 | 0.00 | 0.00 | 0.00 | 44 | 1014.2 |
| 20260507183025 | 21 | 242 | 4.8 | 14.5 | 0.00 | 0.00 | 0.00 | 47 | 1014.3 |
| 20260507181524 | 20 | 286 | 8.0 | 19.3 | 0.00 | 0.00 | 0.00 | 45 | 1014.4 |
| 20260507180010 | 20 | 236 | 4.8 | 14.5 | 0.00 | 0.00 | 0.00 | 46 | 1014.6 |
| 20260507174516 | 20 | 227 | 6.4 | 16.1 | 0.00 | 0.00 | 0.00 | 50 | 1014.7 |
| 20260507173035 | 19 | 271 | 6.4 | 11.3 | 0.00 | 0.00 | 0.00 | 48 | 1014.8 |
| 20260507171532 | 19 | 246 | 8.0 | 17.7 | 0.00 | 0.00 | 0.00 | 52 | 1014.9 |
| 20260507170018 | 18 | 208 | 11.3 | 17.7 | 0.00 | 0.00 | 0.00 | 54 | 1015.0 |
| 20260507164528 | 18 | 219 | 8.0 | 17.7 | 0.00 | 0.00 | 0.00 | 58 | 1015.0 |
| 20260507163032 | 17 | 241 | 8.0 | 16.1 | 0.00 | 0.00 | 0.00 | 60 | 1014.9 |
| 20260507161539 | 17 | 211 | 9.7 | 17.7 | 0.00 | 0.00 | 0.00 | 63 | 1015.0 |
| 20260507160024 | 17 | 281 | 3.2 | 8.0 | 0.00 | 0.00 | 0.00 | 62 | 1015.1 |
| 20260507154532 | 17 | 240 | 3.2 | 8.0 | 0.00 | 0.00 | 0.00 | 62 | 1015.1 |
| 20260507153039 | 16 | 346 | 0.0 | 11.3 | 0.00 | 0.00 | 0.00 | 63 | 1015.1 |
| 20260507151533 | 15 | 274 | 3.2 | 9.7 | 0.00 | 0.00 | 0.00 | 66 | 1015.0 |
| 20260507150020 | 15 | 259 | 1.6 | 14.5 | 0.00 | 0.00 | 0.00 | 64 | 1015.0 |
| 20260507144532 | 15 | 270 | 0.0 | 8.0 | 0.00 | 0.00 | 0.00 | 65 | 1014.8 |
| 20260507143037 | 15 | 323 | 0.0 | 11.3 | 0.00 | 0.00 | 0.00 | 64 | 1014.8 |
| 20260507141548 | 15 | 321 | 3.2 | 11.3 | 0.00 | 0.00 | 0.00 | 64 | 1014.7 |
| 20260507140030 | 15 | 221 | 8.0 | 25.7 | 0.00 | 0.00 | 0.00 | 64 | 1014.3 |
| 20260507134531 | 15 | 221 | 12.9 | 29.0 | 0.00 | 0.00 | 0.00 | 65 | 1014.0 |
| 20260507133033 | 14 | 231 | 1.6 | 9.7 | 0.00 | 0.00 | 0.00 | 69 | 1014.1 |
| 20260507131643 | 14 | 224 | 1.6 | 14.5 | 0.00 | 0.00 | 0.00 | 71 | 1014.0 |
| 20260507130038 | 14 | 249 | 3.2 | 11.3 | 0.00 | 0.00 | 0.00 | 71 | 1013.9 |
| 20260507124530 | 14 | 261 | 9.7 | 16.1 | 0.00 | 0.00 | 0.00 | 69 | 1013.8 |
| 20260507123029 | 14 | 288 | 4.8 | 20.9 | 0.00 | 0.00 | 0.00 | 70 | 1013.6 |
| 20260507121536 | 13 | 254 | 6.4 | 14.5 | 0.00 | 0.00 | 0.00 | 71 | 1013.6 |
| 20260507120021 | 14 | 232 | 6.4 | 19.3 | 0.00 | 0.00 | 0.00 | 71 | 1013.6 |
| 20260507114516 | 13 | 239 | 6.4 | 9.7 | 0.00 | 0.00 | 0.00 | 72 | 1013.7 |
| 20260507113014 | 13 | 227 | 6.4 | 12.9 | 0.00 | 0.00 | 0.00 | 71 | 1013.8 |
| 20260507111514 | 14 | 267 | 0.0 | 9.7 | 0.00 | 0.00 | 0.00 | 70 | 1013.9 |
| 20260507104601 | 14 | 214 | 3.2 | 11.3 | 0.00 | 0.00 | 0.00 | 69 | 1013.7 |
| 20260507103100 | 15 | 225 | 9.7 | 17.7 | 0.00 | 0.00 | 0.00 | 69 | 1013.7 |
| 20260507101600 | 15 | 230 | 3.2 | 16.1 | 0.00 | 0.00 | 0.00 | 68 | 1014.0 |
| 20260507100046 | 15 | 238 | 6.4 | 12.9 | 0.00 | 0.00 | 0.00 | 67 | 1014.0 |
| 20260507094542 | 15 | 244 | 4.8 | 17.7 | 0.00 | 0.00 | 0.00 | 66 | 1013.8 |
| 20260507093049 | 15 | 263 | 6.4 | 16.1 | 0.00 | 0.00 | 0.00 | 65 | 1013.8 |
| 20260507091543 | 15 | 273 | 0.0 | 8.0 | 0.00 | 0.00 | 0.00 | 63 | 1013.8 |
| 20260507090026 | 16 | 238 | 6.4 | 20.9 | 0.00 | 0.00 | 0.00 | 61 | 1013.6 |
| 20260507084525 | 15 | 20 | 6.4 | 12.9 | 0.00 | 0.00 | 0.00 | 61 | 1013.5 |
| 20260507083033 | 16 | 27 | 3.2 | 9.7 | 0.00 | 0.00 | 0.00 | 60 | 1013.4 |
| 20260507081533 | 16 | 264 | 4.8 | 14.5 | 0.00 | 0.00 | 0.00 | 59 | 1013.1 |
| 20260507080016 | 16 | 241 | 3.2 | 11.3 | 0.00 | 0.00 | 0.00 | 59 | 1013.0 |
| 20260507074514 | 16 | 355 | 0.0 | 12.9 | 0.00 | 0.00 | 0.00 | 58 | 1012.9 |
| 20260507073014 | 16 | 17 | 3.2 | 11.3 | 0.00 | 0.00 | 0.00 | 57 | 1012.9 |
| 20260507071536 | 17 | 304 | 6.4 | 20.9 | 0.00 | 0.00 | 0.00 | 56 | 1012.6 |
| 20260507070058 | 17 | 206 | 4.8 | 19.3 | 0.00 | 0.00 | 0.00 | 54 | 1012.6 |
| 20260507064552 | 17 | 223 | 3.2 | 20.9 | 0.00 | 0.00 | 0.00 | 54 | 1012.7 |
| 20260507063055 | 17 | 205 | 3.2 | 12.9 | 0.00 | 0.00 | 0.00 | 52 | 1012.6 |
| 20260507061557 | 18 | 275 | 8.0 | 17.7 | 0.00 | 0.00 | 0.00 | 52 | 1012.4 |
| 20260507060036 | 18 | 219 | 9.7 | 22.5 | 0.00 | 0.00 | 0.00 | 52 | 1012.3 |
| 20260507054532 | 18 | 250 | 11.3 | 22.5 | 0.00 | 0.00 | 0.00 | 51 | 1012.2 |
| 20260507053052 | 18 | 240 | 14.5 | 20.9 | 0.00 | 0.00 | 0.00 | 50 | 1012.3 |
| 20260507051540 | 18 | 215 | 14.5 | 25.7 | 0.00 | 0.00 | 0.00 | 51 | 1012.3 |
| 20260507050013 | 19 | 240 | 11.3 | 24.1 | 0.00 | 0.00 | 0.00 | 50 | 1012.3 |
| 20260507044513 | 19 | 240 | 6.4 | 17.7 | 0.00 | 0.00 | 0.00 | 50 | 1012.2 |
| 20260507043014 | 20 | 227 | 3.2 | 12.9 | 0.00 | 0.00 | 0.00 | 49 | 1012.2 |
| 20260507041513 | 20 | 223 | 6.4 | 17.7 | 0.00 | 0.00 | 0.00 | 50 | 1012.2 |
| 20260507040115 | 20 | 222 | 9.7 | 20.9 | 0.00 | 0.00 | 0.00 | 50 | 1011.8 |
| 20260507034602 | 21 | 242 | 17.7 | 27.4 | 0.00 | 0.00 | 0.00 | 49 | 1011.4 |
| 20260507033100 | 21 | 232 | 9.7 | 20.9 | 0.00 | 0.00 | 0.00 | 49 | 1011.4 |
| 20260507031558 | 21 | 230 | 8.0 | 14.5 | 0.00 | 0.00 | 0.00 | 47 | 1010.9 |
| 20260507030040 | 22 | 225 | 3.2 | 17.7 | 0.00 | 0.00 | 0.00 | 44 | 1010.8 |
| 20260507024542 | 22 | 182 | 6.4 | 19.3 | 0.00 | 0.00 | 0.00 | 46 | 1010.3 |
| 20260507023041 | 23 | 336 | 3.2 | 32.2 | 0.00 | 0.00 | 0.00 | 46 | 1010.7 |
| 20260507021543 | 23 | 222 | 12.9 | 25.7 | 0.00 | 0.00 | 0.00 | 44 | 1009.4 |
| 20260507020023 | 23 | 212 | 14.5 | 25.7 | 0.00 | 0.00 | 0.00 | 44 | 1009.4 |
| 20260507014523 | 23 | 214 | 9.7 | 25.7 | 0.00 | 0.00 | 0.00 | 45 | 1009.4 |
| 20260507013029 | 24 | 236 | 14.5 | 29.0 | 0.00 | 0.00 | 0.00 | 43 | 1009.4 |
| 20260507011540 | 24 | 215 | 12.9 | 24.1 | 0.00 | 0.00 | 0.00 | 45 | 1009.5 |
| 20260507010025 | 24 | 228 | 8.0 | 19.3 | 0.00 | 0.00 | 0.00 | 47 | 1009.7 |
| 20260507004524 | 25 | 220 | 9.7 | 16.1 | 0.00 | 0.00 | 0.00 | 47 | 1009.7 |
| 20260507003019 | 25 | 205 | 8.0 | 16.1 | 0.00 | 0.00 | 0.00 | 46 | 1009.7 |
| 20260507001632 | 25 | 263 | 8.0 | 16.1 | 0.00 | 0.00 | 0.00 | 46 | 1009.6 |
| 20260507000019 | 25 | 222 | 8.0 | 19.3 | 0.00 | 0.00 | 0.00 | 48 | 1009.7 |
| 20260506234527 | 26 | 275 | 9.7 | 17.7 | 0.00 | 0.00 | 0.00 | 45 | 1009.8 |
| 20260506233027 | 27 | 284 | 1.6 | 11.3 | 0.00 | 0.00 | 0.00 | 42 | 1009.8 |
| 20260506231539 | 26 | 227 | 0.0 | 11.3 | 0.00 | 0.00 | 0.00 | 42 | 1010.0 |
| 20260506230031 | 26 | 236 | 8.0 | 19.3 | 0.00 | 0.00 | 0.00 | 42 | 1010.0 |
| 20260506224533 | 27 | 277 | 3.2 | 9.7 | 0.00 | 0.00 | 0.00 | 45 | 1010.1 |
| 20260506223032 | 26 | 270 | 3.2 | 11.3 | 0.00 | 0.00 | 0.00 | 49 | 1010.2 |
| 20260506221530 | 26 | 258 | 6.4 | 9.7 | 0.00 | 0.00 | 0.00 | 48 | 1010.5 |
| 20260506220028 | 27 | 245 | 8.0 | 20.9 | 0.00 | 0.00 | 0.00 | 43 | 1010.5 |
| 20260506214511 | 28 | 245 | 6.4 | 16.1 | 0.00 | 0.00 | 0.00 | 42 | 1010.6 |